���͔��d,,,
,,,
DATE,TIME,�z��l(MWh),���ђl(MWh)
2023/4/1,0:00,5,1
2023/4/1,0:30,5,1
2023/4/1,1:00,5,1
2023/4/1,1:30,6,1
2023/4/1,2:00,6,1
2023/4/1,2:30,6,1
2023/4/1,3:00,6,1
2023/4/1,3:30,6,1
2023/4/1,4:00,7,1
2023/4/1,4:30,7,2
2023/4/1,5:00,7,4
2023/4/1,5:30,7,4
2023/4/1,6:00,7,6
2023/4/1,6:30,7,5
2023/4/1,7:00,7,6
2023/4/1,7:30,6,4
2023/4/1,8:00,6,3
2023/4/1,8:30,7,2
2023/4/1,9:00,8,2
2023/4/1,9:30,9,2
2023/4/1,10:00,11,1
2023/4/1,10:30,12,2
2023/4/1,11:00,13,2
2023/4/1,11:30,15,3
2023/4/1,12:00,16,3
2023/4/1,12:30,17,4
2023/4/1,13:00,18,4
2023/4/1,13:30,19,3
2023/4/1,14:00,18,2
2023/4/1,14:30,17,1
2023/4/1,15:00,16,1
2023/4/1,15:30,14,0
2023/4/1,16:00,12,1
2023/4/1,16:30,10,1
2023/4/1,17:00,7,0
2023/4/1,17:30,6,0
2023/4/1,18:00,6,0
2023/4/1,18:30,7,0
2023/4/1,19:00,8,1
2023/4/1,19:30,8,3
2023/4/1,20:00,9,3
2023/4/1,20:30,9,4
2023/4/1,21:00,9,3
2023/4/1,21:30,9,3
2023/4/1,22:00,9,4
2023/4/1,22:30,9,7
2023/4/1,23:00,9,6
2023/4/1,23:30,9,6
2023/4/2,0:00,8,5
2023/4/2,0:30,8,4
2023/4/2,1:00,8,4
2023/4/2,1:30,8,6
2023/4/2,2:00,8,9
2023/4/2,2:30,9,10
2023/4/2,3:00,10,10
2023/4/2,3:30,10,10
2023/4/2,4:00,11,11
2023/4/2,4:30,12,14
2023/4/2,5:00,13,18
2023/4/2,5:30,14,18
2023/4/2,6:00,15,17
2023/4/2,6:30,16,17
2023/4/2,7:00,16,17
2023/4/2,7:30,15,13
2023/4/2,8:00,15,7
2023/4/2,8:30,15,4
2023/4/2,9:00,16,4
2023/4/2,9:30,19,6
2023/4/2,10:00,21,7
2023/4/2,10:30,22,8
2023/4/2,11:00,24,9
2023/4/2,11:30,26,9
2023/4/2,12:00,29,8
2023/4/2,12:30,32,10
2023/4/2,13:00,33,11
2023/4/2,13:30,33,11
2023/4/2,14:00,33,11
2023/4/2,14:30,33,11
2023/4/2,15:00,32,9
2023/4/2,15:30,30,9
2023/4/2,16:00,29,16
2023/4/2,16:30,28,17
2023/4/2,17:00,28,15
2023/4/2,17:30,27,16
2023/4/2,18:00,28,13
2023/4/2,18:30,28,11
2023/4/2,19:00,29,12
2023/4/2,19:30,29,12
2023/4/2,20:00,28,14
2023/4/2,20:30,28,17
2023/4/2,21:00,28,18
2023/4/2,21:30,29,23
2023/4/2,22:00,29,26
2023/4/2,22:30,29,24
2023/4/2,23:00,28,23
2023/4/2,23:30,27,22
2023/4/3,0:00,29,21
2023/4/3,0:30,29,23
2023/4/3,1:00,29,24
2023/4/3,1:30,29,22
2023/4/3,2:00,29,21
2023/4/3,2:30,29,21
2023/4/3,3:00,30,22
2023/4/3,3:30,32,19
2023/4/3,4:00,33,19
2023/4/3,4:30,34,19
2023/4/3,5:00,32,16
2023/4/3,5:30,30,13
2023/4/3,6:00,27,13
2023/4/3,6:30,26,15
2023/4/3,7:00,24,16
2023/4/3,7:30,21,17
2023/4/3,8:00,20,17
2023/4/3,8:30,18,20
2023/4/3,9:00,18,17
2023/4/3,9:30,18,18
2023/4/3,10:00,18,17
2023/4/3,10:30,19,18
2023/4/3,11:00,19,19
2023/4/3,11:30,19,21
2023/4/3,12:00,18,22
2023/4/3,12:30,17,19
2023/4/3,13:00,17,17
2023/4/3,13:30,16,19
2023/4/3,14:00,15,18
2023/4/3,14:30,13,13
2023/4/3,15:00,11,11
2023/4/3,15:30,9,11
2023/4/3,16:00,7,8
2023/4/3,16:30,5,5
2023/4/3,17:00,4,2
2023/4/3,17:30,3,1
2023/4/3,18:00,3,4
2023/4/3,18:30,3,9
2023/4/3,19:00,4,12
2023/4/3,19:30,4,13
2023/4/3,20:00,5,10
2023/4/3,20:30,7,10
2023/4/3,21:00,8,9
2023/4/3,21:30,9,9
2023/4/3,22:00,9,8
2023/4/3,22:30,8,4
2023/4/3,23:00,7,3
2023/4/3,23:30,7,5
2023/4/4,0:00,6,6
2023/4/4,0:30,6,7
2023/4/4,1:00,6,7
2023/4/4,1:30,6,7
2023/4/4,2:00,6,6
2023/4/4,2:30,6,6
2023/4/4,3:00,5,5
2023/4/4,3:30,5,4
2023/4/4,4:00,5,4
2023/4/4,4:30,5,4
2023/4/4,5:00,5,5
2023/4/4,5:30,5,5
2023/4/4,6:00,5,6
2023/4/4,6:30,5,7
2023/4/4,7:00,5,8
2023/4/4,7:30,6,7
2023/4/4,8:00,6,5
2023/4/4,8:30,6,6
2023/4/4,9:00,5,8
2023/4/4,9:30,6,8
2023/4/4,10:00,7,10
2023/4/4,10:30,10,11
2023/4/4,11:00,12,13
2023/4/4,11:30,15,18
2023/4/4,12:00,19,21
2023/4/4,12:30,23,24
2023/4/4,13:00,26,27
2023/4/4,13:30,28,29
2023/4/4,14:00,30,31
2023/4/4,14:30,31,34
2023/4/4,15:00,32,36
2023/4/4,15:30,33,35
2023/4/4,16:00,34,35
2023/4/4,16:30,35,36
2023/4/4,17:00,35,33
2023/4/4,17:30,35,31
2023/4/4,18:00,34,29
2023/4/4,18:30,34,30
2023/4/4,19:00,32,33
2023/4/4,19:30,31,34
2023/4/4,20:00,30,34
2023/4/4,20:30,29,36
2023/4/4,21:00,28,32
2023/4/4,21:30,28,37
2023/4/4,22:00,29,46
2023/4/4,22:30,30,51
2023/4/4,23:00,30,52
2023/4/4,23:30,31,52
2023/4/5,0:00,34,54
2023/4/5,0:30,36,55
2023/4/5,1:00,38,51
2023/4/5,1:30,39,58
2023/4/5,2:00,40,53
2023/4/5,2:30,41,47
2023/4/5,3:00,42,45
2023/4/5,3:30,43,43
2023/4/5,4:00,44,40
2023/4/5,4:30,43,42
2023/4/5,5:00,43,38
2023/4/5,5:30,42,40
2023/4/5,6:00,41,41
2023/4/5,6:30,40,45
2023/4/5,7:00,39,49
2023/4/5,7:30,40,50
2023/4/5,8:00,42,51
2023/4/5,8:30,47,52
2023/4/5,9:00,51,52
2023/4/5,9:30,54,55
2023/4/5,10:00,57,56
2023/4/5,10:30,58,60
2023/4/5,11:00,59,61
2023/4/5,11:30,60,60
2023/4/5,12:00,61,64
2023/4/5,12:30,62,68
2023/4/5,13:00,63,69
2023/4/5,13:30,62,67
2023/4/5,14:00,61,66
2023/4/5,14:30,59,66
2023/4/5,15:00,59,65
2023/4/5,15:30,60,69
2023/4/5,16:00,62,70
2023/4/5,16:30,63,63
2023/4/5,17:00,64,65
2023/4/5,17:30,62,73
2023/4/5,18:00,61,74
2023/4/5,18:30,61,72
2023/4/5,19:00,61,71
2023/4/5,19:30,61,70
2023/4/5,20:00,61,70
2023/4/5,20:30,62,67
2023/4/5,21:00,62,69
2023/4/5,21:30,61,67
2023/4/5,22:00,60,66
2023/4/5,22:30,59,67
2023/4/5,23:00,57,66
2023/4/5,23:30,55,65
2023/4/6,0:00,59,66
2023/4/6,0:30,58,69
2023/4/6,1:00,57,67
2023/4/6,1:30,56,63
2023/4/6,2:00,55,68
2023/4/6,2:30,54,63
2023/4/6,3:00,54,65
2023/4/6,3:30,53,62
2023/4/6,4:00,52,65
2023/4/6,4:30,53,64
2023/4/6,5:00,53,64
2023/4/6,5:30,51,64
2023/4/6,6:00,50,60
2023/4/6,6:30,52,60
2023/4/6,7:00,53,63
2023/4/6,7:30,55,61
2023/4/6,8:00,56,64
2023/4/6,8:30,56,64
2023/4/6,9:00,56,62
2023/4/6,9:30,56,60
2023/4/6,10:00,55,58
2023/4/6,10:30,54,59
2023/4/6,11:00,54,62
2023/4/6,11:30,54,62
2023/4/6,12:00,55,58
2023/4/6,12:30,55,56
2023/4/6,13:00,55,56
2023/4/6,13:30,55,59
2023/4/6,14:00,55,63
2023/4/6,14:30,54,61
2023/4/6,15:00,52,63
2023/4/6,15:30,51,64
2023/4/6,16:00,52,63
2023/4/6,16:30,55,64
2023/4/6,17:00,56,66
2023/4/6,17:30,55,67
2023/4/6,18:00,55,68
2023/4/6,18:30,56,69
2023/4/6,19:00,56,65
2023/4/6,19:30,56,67
2023/4/6,20:00,56,66
2023/4/6,20:30,59,64
2023/4/6,21:00,59,59
2023/4/6,21:30,56,60
2023/4/6,22:00,53,61
2023/4/6,22:30,49,62
2023/4/6,23:00,47,62
2023/4/6,23:30,48,59
2023/4/7,0:00,45,58
2023/4/7,0:30,52,59
2023/4/7,1:00,56,60
2023/4/7,1:30,56,60
2023/4/7,2:00,56,58
2023/4/7,2:30,54,55
2023/4/7,3:00,51,47
2023/4/7,3:30,49,42
2023/4/7,4:00,45,47
2023/4/7,4:30,38,50
2023/4/7,5:00,34,54
2023/4/7,5:30,32,53
2023/4/7,6:00,31,52
2023/4/7,6:30,32,48
2023/4/7,7:00,32,41
2023/4/7,7:30,30,41
2023/4/7,8:00,28,41
2023/4/7,8:30,27,40
2023/4/7,9:00,26,40
2023/4/7,9:30,27,43
2023/4/7,10:00,29,36
2023/4/7,10:30,31,41
2023/4/7,11:00,33,40
2023/4/7,11:30,35,43
2023/4/7,12:00,37,43
2023/4/7,12:30,40,44
2023/4/7,13:00,43,46
2023/4/7,13:30,44,53
2023/4/7,14:00,46,59
2023/4/7,14:30,49,61
2023/4/7,15:00,51,61
2023/4/7,15:30,52,58
2023/4/7,16:00,54,59
2023/4/7,16:30,57,64
2023/4/7,17:00,58,68
2023/4/7,17:30,58,72
2023/4/7,18:00,57,78
2023/4/7,18:30,57,80
2023/4/7,19:00,55,76
2023/4/7,19:30,53,79
2023/4/7,20:00,50,81
2023/4/7,20:30,47,77
2023/4/7,21:00,44,74
2023/4/7,21:30,42,76
2023/4/7,22:00,40,75
2023/4/7,22:30,38,73
2023/4/7,23:00,37,70
2023/4/7,23:30,37,64
2023/4/8,0:00,39,59
2023/4/8,0:30,37,56
2023/4/8,1:00,36,58
2023/4/8,1:30,36,59
2023/4/8,2:00,38,58
2023/4/8,2:30,41,63
2023/4/8,3:00,45,64
2023/4/8,3:30,50,63
2023/4/8,4:00,54,60
2023/4/8,4:30,56,61
2023/4/8,5:00,57,57
2023/4/8,5:30,59,62
2023/4/8,6:00,60,64
2023/4/8,6:30,62,63
2023/4/8,7:00,65,61
2023/4/8,7:30,69,61
2023/4/8,8:00,72,66
2023/4/8,8:30,73,76
2023/4/8,9:00,75,76
2023/4/8,9:30,75,75
2023/4/8,10:00,76,75
2023/4/8,10:30,76,78
2023/4/8,11:00,77,80
2023/4/8,11:30,78,77
2023/4/8,12:00,78,75
2023/4/8,12:30,78,75
2023/4/8,13:00,79,74
2023/4/8,13:30,78,76
2023/4/8,14:00,77,78
2023/4/8,14:30,76,80
2023/4/8,15:00,75,78
2023/4/8,15:30,74,79
2023/4/8,16:00,74,79
2023/4/8,16:30,75,78
2023/4/8,17:00,75,79
2023/4/8,17:30,73,79
2023/4/8,18:00,70,78
2023/4/8,18:30,65,74
2023/4/8,19:00,61,76
2023/4/8,19:30,56,75
2023/4/8,20:00,51,75
2023/4/8,20:30,47,72
2023/4/8,21:00,41,70
2023/4/8,21:30,35,64
2023/4/8,22:00,29,56
2023/4/8,22:30,25,50
2023/4/8,23:00,21,46
2023/4/8,23:30,20,41
2023/4/9,0:00,24,37
2023/4/9,0:30,23,36
2023/4/9,1:00,22,31
2023/4/9,1:30,21,29
2023/4/9,2:00,20,29
2023/4/9,2:30,19,29
2023/4/9,3:00,19,27
2023/4/9,3:30,18,24
2023/4/9,4:00,17,21
2023/4/9,4:30,17,21
2023/4/9,5:00,16,18
2023/4/9,5:30,15,14
2023/4/9,6:00,14,11
2023/4/9,6:30,13,7
2023/4/9,7:00,13,5
2023/4/9,7:30,12,4
2023/4/9,8:00,11,3
2023/4/9,8:30,10,3
2023/4/9,9:00,9,3
2023/4/9,9:30,8,3
2023/4/9,10:00,8,3
2023/4/9,10:30,8,1
2023/4/9,11:00,8,0
2023/4/9,11:30,7,1
2023/4/9,12:00,7,1
2023/4/9,12:30,6,3
2023/4/9,13:00,6,4
2023/4/9,13:30,6,5
2023/4/9,14:00,6,4
2023/4/9,14:30,6,4
2023/4/9,15:00,6,3
2023/4/9,15:30,5,2
2023/4/9,16:00,4,2
2023/4/9,16:30,4,1
2023/4/9,17:00,4,2
2023/4/9,17:30,5,4
2023/4/9,18:00,5,5
2023/4/9,18:30,5,6
2023/4/9,19:00,6,5
2023/4/9,19:30,6,4
2023/4/9,20:00,7,2
2023/4/9,20:30,7,4
2023/4/9,21:00,7,4
2023/4/9,21:30,7,5
2023/4/9,22:00,7,5
2023/4/9,22:30,7,6
2023/4/9,23:00,6,5
2023/4/9,23:30,6,5
2023/4/10,0:00,6,6
2023/4/10,0:30,6,7
2023/4/10,1:00,6,5
2023/4/10,1:30,6,5
2023/4/10,2:00,6,5
2023/4/10,2:30,6,5
2023/4/10,3:00,6,6
2023/4/10,3:30,6,9
2023/4/10,4:00,6,7
2023/4/10,4:30,5,7
2023/4/10,5:00,5,8
2023/4/10,5:30,5,7
2023/4/10,6:00,4,5
2023/4/10,6:30,4,5
2023/4/10,7:00,4,5
2023/4/10,7:30,4,5
2023/4/10,8:00,4,2
2023/4/10,8:30,4,3
2023/4/10,9:00,5,2
2023/4/10,9:30,7,1
2023/4/10,10:00,9,2
2023/4/10,10:30,11,2
2023/4/10,11:00,14,0
2023/4/10,11:30,15,0
2023/4/10,12:00,16,0
2023/4/10,12:30,17,0
2023/4/10,13:00,18,1
2023/4/10,13:30,18,1
2023/4/10,14:00,19,3
2023/4/10,14:30,20,4
2023/4/10,15:00,21,7
2023/4/10,15:30,22,8
2023/4/10,16:00,23,12
2023/4/10,16:30,25,13
2023/4/10,17:00,26,14
2023/4/10,17:30,28,16
2023/4/10,18:00,29,19
2023/4/10,18:30,30,20
2023/4/10,19:00,30,22
2023/4/10,19:30,31,26
2023/4/10,20:00,30,31
2023/4/10,20:30,30,32
2023/4/10,21:00,29,31
2023/4/10,21:30,28,31
2023/4/10,22:00,28,32
2023/4/10,22:30,28,33
2023/4/10,23:00,28,35
2023/4/10,23:30,28,37
2023/4/11,0:00,31,37
2023/4/11,0:30,31,36
2023/4/11,1:00,30,37
2023/4/11,1:30,30,37
2023/4/11,2:00,30,33
2023/4/11,2:30,30,30
2023/4/11,3:00,29,28
2023/4/11,3:30,29,26
2023/4/11,4:00,28,25
2023/4/11,4:30,27,23
2023/4/11,5:00,26,21
2023/4/11,5:30,25,18
2023/4/11,6:00,24,14
2023/4/11,6:30,23,12
2023/4/11,7:00,23,9
2023/4/11,7:30,24,8
2023/4/11,8:00,25,9
2023/4/11,8:30,28,12
2023/4/11,9:00,32,13
2023/4/11,9:30,38,15
2023/4/11,10:00,43,16
2023/4/11,10:30,48,20
2023/4/11,11:00,51,22
2023/4/11,11:30,53,23
2023/4/11,12:00,55,26
2023/4/11,12:30,56,27
2023/4/11,13:00,57,28
2023/4/11,13:30,58,31
2023/4/11,14:00,58,34
2023/4/11,14:30,58,37
2023/4/11,15:00,58,38
2023/4/11,15:30,59,40
2023/4/11,16:00,59,45
2023/4/11,16:30,59,52
2023/4/11,17:00,58,52
2023/4/11,17:30,56,57
2023/4/11,18:00,55,56
2023/4/11,18:30,54,57
2023/4/11,19:00,54,55
2023/4/11,19:30,53,50
2023/4/11,20:00,52,46
2023/4/11,20:30,49,43
2023/4/11,21:00,47,40
2023/4/11,21:30,45,38
2023/4/11,22:00,42,33
2023/4/11,22:30,40,32
2023/4/11,23:00,38,31
2023/4/11,23:30,37,30
2023/4/12,0:00,38,27
2023/4/12,0:30,39,31
2023/4/12,1:00,39,29
2023/4/12,1:30,40,33
2023/4/12,2:00,40,35
2023/4/12,2:30,40,34
2023/4/12,3:00,39,33
2023/4/12,3:30,36,26
2023/4/12,4:00,32,20
2023/4/12,4:30,24,15
2023/4/12,5:00,19,13
2023/4/12,5:30,16,14
2023/4/12,6:00,14,11
2023/4/12,6:30,12,15
2023/4/12,7:00,13,17
2023/4/12,7:30,18,19
2023/4/12,8:00,24,15
2023/4/12,8:30,33,12
2023/4/12,9:00,39,10
2023/4/12,9:30,40,9
2023/4/12,10:00,42,5
2023/4/12,10:30,44,4
2023/4/12,11:00,47,5
2023/4/12,11:30,50,12
2023/4/12,12:00,53,13
2023/4/12,12:30,53,15
2023/4/12,13:00,55,19
2023/4/12,13:30,58,20
2023/4/12,14:00,61,19
2023/4/12,14:30,63,22
2023/4/12,15:00,63,26
2023/4/12,15:30,63,33
2023/4/12,16:00,62,35
2023/4/12,16:30,60,41
2023/4/12,17:00,58,45
2023/4/12,17:30,56,52
2023/4/12,18:00,54,49
2023/4/12,18:30,51,45
2023/4/12,19:00,47,45
2023/4/12,19:30,42,46
2023/4/12,20:00,38,37
2023/4/12,20:30,34,24
2023/4/12,21:00,30,25
2023/4/12,21:30,28,25
2023/4/12,22:00,26,24
2023/4/12,22:30,25,20
2023/4/12,23:00,24,23
2023/4/12,23:30,24,31
2023/4/13,0:00,14,30
2023/4/13,0:30,13,29
2023/4/13,1:00,12,30
2023/4/13,1:30,14,30
2023/4/13,2:00,15,30
2023/4/13,2:30,17,32
2023/4/13,3:00,18,32
2023/4/13,3:30,18,30
2023/4/13,4:00,18,33
2023/4/13,4:30,18,36
2023/4/13,5:00,18,36
2023/4/13,5:30,17,33
2023/4/13,6:00,16,22
2023/4/13,6:30,14,18
2023/4/13,7:00,13,19
2023/4/13,7:30,13,12
2023/4/13,8:00,11,9
2023/4/13,8:30,9,3
2023/4/13,9:00,7,1
2023/4/13,9:30,5,0
2023/4/13,10:00,4,0
2023/4/13,10:30,3,0
2023/4/13,11:00,3,0
2023/4/13,11:30,3,0
2023/4/13,12:00,4,0
2023/4/13,12:30,5,0
2023/4/13,13:00,6,0
2023/4/13,13:30,7,0
2023/4/13,14:00,9,2
2023/4/13,14:30,11,4
2023/4/13,15:00,13,8
2023/4/13,15:30,16,8
2023/4/13,16:00,19,9
2023/4/13,16:30,23,14
2023/4/13,17:00,26,18
2023/4/13,17:30,28,22
2023/4/13,18:00,29,21
2023/4/13,18:30,30,21
2023/4/13,19:00,31,22
2023/4/13,19:30,31,22
2023/4/13,20:00,30,21
2023/4/13,20:30,29,20
2023/4/13,21:00,29,19
2023/4/13,21:30,28,21
2023/4/13,22:00,27,24
2023/4/13,22:30,26,25
2023/4/13,23:00,26,25
2023/4/13,23:30,25,25
2023/4/14,0:00,22,25
2023/4/14,0:30,22,26
2023/4/14,1:00,21,25
2023/4/14,1:30,21,25
2023/4/14,2:00,21,25
2023/4/14,2:30,21,25
2023/4/14,3:00,21,23
2023/4/14,3:30,20,24
2023/4/14,4:00,20,22
2023/4/14,4:30,18,22
2023/4/14,5:00,17,20
2023/4/14,5:30,17,17
2023/4/14,6:00,17,16
2023/4/14,6:30,16,16
2023/4/14,7:00,17,17
2023/4/14,7:30,18,14
2023/4/14,8:00,20,11
2023/4/14,8:30,22,11
2023/4/14,9:00,25,11
2023/4/14,9:30,29,12
2023/4/14,10:00,32,15
2023/4/14,10:30,35,17
2023/4/14,11:00,35,17
2023/4/14,11:30,34,18
2023/4/14,12:00,34,18
2023/4/14,12:30,37,16
2023/4/14,13:00,38,15
2023/4/14,13:30,38,10
2023/4/14,14:00,39,9
2023/4/14,14:30,42,6
2023/4/14,15:00,43,5
2023/4/14,15:30,41,9
2023/4/14,16:00,39,8
2023/4/14,16:30,36,9
2023/4/14,17:00,33,13
2023/4/14,17:30,30,16
2023/4/14,18:00,27,19
2023/4/14,18:30,27,28
2023/4/14,19:00,26,29
2023/4/14,19:30,26,34
2023/4/14,20:00,26,33
2023/4/14,20:30,29,31
2023/4/14,21:00,32,31
2023/4/14,21:30,33,31
2023/4/14,22:00,36,37
2023/4/14,22:30,38,35
2023/4/14,23:00,42,33
2023/4/14,23:30,48,28
2023/4/15,0:00,39,29
2023/4/15,0:30,36,29
2023/4/15,1:00,35,32
2023/4/15,1:30,34,22
2023/4/15,2:00,32,22
2023/4/15,2:30,30,27
2023/4/15,3:00,27,34
2023/4/15,3:30,25,40
2023/4/15,4:00,22,38
2023/4/15,4:30,20,34
2023/4/15,5:00,17,37
2023/4/15,5:30,14,36
2023/4/15,6:00,12,35
2023/4/15,6:30,13,35
2023/4/15,7:00,14,36
2023/4/15,7:30,15,35
2023/4/15,8:00,17,34
2023/4/15,8:30,17,32
2023/4/15,9:00,18,33
2023/4/15,9:30,19,29
2023/4/15,10:00,21,32
2023/4/15,10:30,22,32
2023/4/15,11:00,23,34
2023/4/15,11:30,26,29
2023/4/15,12:00,28,23
2023/4/15,12:30,29,21
2023/4/15,13:00,30,19
2023/4/15,13:30,30,17
2023/4/15,14:00,28,19
2023/4/15,14:30,24,19
2023/4/15,15:00,21,20
2023/4/15,15:30,21,21
2023/4/15,16:00,20,14
2023/4/15,16:30,17,12
2023/4/15,17:00,18,19
2023/4/15,17:30,23,28
2023/4/15,18:00,27,27
2023/4/15,18:30,28,36
2023/4/15,19:00,29,44
2023/4/15,19:30,30,39
2023/4/15,20:00,32,40
2023/4/15,20:30,34,40
2023/4/15,21:00,35,46
2023/4/15,21:30,35,50
2023/4/15,22:00,35,52
2023/4/15,22:30,37,57
2023/4/15,23:00,40,64
2023/4/15,23:30,45,66
2023/4/16,0:00,57,70
2023/4/16,0:30,55,74
2023/4/16,1:00,54,72
2023/4/16,1:30,52,67
2023/4/16,2:00,50,68
2023/4/16,2:30,49,68
2023/4/16,3:00,47,68
2023/4/16,3:30,45,68
2023/4/16,4:00,42,73
2023/4/16,4:30,39,73
2023/4/16,5:00,37,73
2023/4/16,5:30,33,72
2023/4/16,6:00,29,62
2023/4/16,6:30,23,58
2023/4/16,7:00,19,52
2023/4/16,7:30,16,41
2023/4/16,8:00,13,25
2023/4/16,8:30,11,21
2023/4/16,9:00,9,15
2023/4/16,9:30,9,10
2023/4/16,10:00,8,12
2023/4/16,10:30,6,13
2023/4/16,11:00,4,11
2023/4/16,11:30,4,9
2023/4/16,12:00,6,6
2023/4/16,12:30,9,6
2023/4/16,13:00,15,3
2023/4/16,13:30,23,1
2023/4/16,14:00,29,1
2023/4/16,14:30,32,2
2023/4/16,15:00,32,2
2023/4/16,15:30,27,3
2023/4/16,16:00,24,7
2023/4/16,16:30,24,9
2023/4/16,17:00,26,12
2023/4/16,17:30,28,15
2023/4/16,18:00,29,20
2023/4/16,18:30,28,21
2023/4/16,19:00,28,20
2023/4/16,19:30,29,25
2023/4/16,20:00,32,30
2023/4/16,20:30,37,30
2023/4/16,21:00,42,34
2023/4/16,21:30,45,38
2023/4/16,22:00,49,43
2023/4/16,22:30,53,47
2023/4/16,23:00,56,50
2023/4/16,23:30,57,50
2023/4/17,0:00,60,50
2023/4/17,0:30,55,59
2023/4/17,1:00,53,65
2023/4/17,1:30,53,66
2023/4/17,2:00,59,61
2023/4/17,2:30,72,59
2023/4/17,3:00,78,51
2023/4/17,3:30,73,49
2023/4/17,4:00,70,44
2023/4/17,4:30,68,42
2023/4/17,5:00,64,36
2023/4/17,5:30,57,33
2023/4/17,6:00,50,34
2023/4/17,6:30,44,31
2023/4/17,7:00,40,26
2023/4/17,7:30,37,22
2023/4/17,8:00,33,17
2023/4/17,8:30,29,16
2023/4/17,9:00,26,16
2023/4/17,9:30,24,16
2023/4/17,10:00,24,17
2023/4/17,10:30,24,18
2023/4/17,11:00,24,20
2023/4/17,11:30,24,22
2023/4/17,12:00,24,23
2023/4/17,12:30,24,23
2023/4/17,13:00,24,23
2023/4/17,13:30,24,19
2023/4/17,14:00,24,16
2023/4/17,14:30,24,15
2023/4/17,15:00,23,12
2023/4/17,15:30,21,13
2023/4/17,16:00,18,9
2023/4/17,16:30,15,6
2023/4/17,17:00,12,4
2023/4/17,17:30,8,3
2023/4/17,18:00,6,2
2023/4/17,18:30,5,2
2023/4/17,19:00,5,1
2023/4/17,19:30,5,0
2023/4/17,20:00,5,0
2023/4/17,20:30,5,0
2023/4/17,21:00,5,0
2023/4/17,21:30,5,0
2023/4/17,22:00,6,0
2023/4/17,22:30,7,0
2023/4/17,23:00,8,1
2023/4/17,23:30,9,5
2023/4/18,0:00,9,8
2023/4/18,0:30,12,9
2023/4/18,1:00,14,10
2023/4/18,1:30,16,11
2023/4/18,2:00,18,10
2023/4/18,2:30,21,12
2023/4/18,3:00,23,15
2023/4/18,3:30,25,20
2023/4/18,4:00,27,24
2023/4/18,4:30,29,28
2023/4/18,5:00,31,31
2023/4/18,5:30,33,33
2023/4/18,6:00,34,34
2023/4/18,6:30,35,36
2023/4/18,7:00,37,38
2023/4/18,7:30,42,40
2023/4/18,8:00,46,37
2023/4/18,8:30,50,34
2023/4/18,9:00,53,30
2023/4/18,9:30,54,34
2023/4/18,10:00,55,31
2023/4/18,10:30,56,30
2023/4/18,11:00,56,31
2023/4/18,11:30,55,35
2023/4/18,12:00,54,39
2023/4/18,12:30,55,41
2023/4/18,13:00,56,39
2023/4/18,13:30,57,38
2023/4/18,14:00,58,37
2023/4/18,14:30,58,37
2023/4/18,15:00,58,37
2023/4/18,15:30,58,36
2023/4/18,16:00,57,38
2023/4/18,16:30,55,39
2023/4/18,17:00,51,39
2023/4/18,17:30,46,39
2023/4/18,18:00,42,35
2023/4/18,18:30,38,37
2023/4/18,19:00,34,44
2023/4/18,19:30,30,41
2023/4/18,20:00,26,37
2023/4/18,20:30,20,35
2023/4/18,21:00,16,34
2023/4/18,21:30,12,33
2023/4/18,22:00,9,33
2023/4/18,22:30,8,29
2023/4/18,23:00,6,25
2023/4/18,23:30,5,19
2023/4/19,0:00,6,13
2023/4/19,0:30,6,9
2023/4/19,1:00,5,7
2023/4/19,1:30,5,5
2023/4/19,2:00,5,5
2023/4/19,2:30,5,3
2023/4/19,3:00,5,2
2023/4/19,3:30,5,3
2023/4/19,4:00,5,5
2023/4/19,4:30,5,4
2023/4/19,5:00,5,3
2023/4/19,5:30,5,3
2023/4/19,6:00,5,3
2023/4/19,6:30,4,3
2023/4/19,7:00,4,3
2023/4/19,7:30,4,2
2023/4/19,8:00,5,2
2023/4/19,8:30,5,3
2023/4/19,9:00,5,3
2023/4/19,9:30,5,2
2023/4/19,10:00,4,3
2023/4/19,10:30,4,3
2023/4/19,11:00,4,3
2023/4/19,11:30,3,3
2023/4/19,12:00,3,3
2023/4/19,12:30,3,4
2023/4/19,13:00,3,4
2023/4/19,13:30,3,6
2023/4/19,14:00,3,6
2023/4/19,14:30,3,7
2023/4/19,15:00,3,6
2023/4/19,15:30,3,4
2023/4/19,16:00,3,4
2023/4/19,16:30,3,5
2023/4/19,17:00,3,5
2023/4/19,17:30,4,8
2023/4/19,18:00,4,9
2023/4/19,18:30,4,13
2023/4/19,19:00,4,17
2023/4/19,19:30,5,19
2023/4/19,20:00,5,27
2023/4/19,20:30,5,33
2023/4/19,21:00,6,34
2023/4/19,21:30,7,31
2023/4/19,22:00,9,29
2023/4/19,22:30,11,30
2023/4/19,23:00,12,28
2023/4/19,23:30,13,25
2023/4/20,0:00,19,21
2023/4/20,0:30,20,12
2023/4/20,1:00,21,9
2023/4/20,1:30,21,6
2023/4/20,2:00,22,5
2023/4/20,2:30,22,6
2023/4/20,3:00,22,8
2023/4/20,3:30,21,9
2023/4/20,4:00,21,6
2023/4/20,4:30,21,4
2023/4/20,5:00,21,3
2023/4/20,5:30,22,1
2023/4/20,6:00,22,0
2023/4/20,6:30,21,0
2023/4/20,7:00,21,0
2023/4/20,7:30,21,0
2023/4/20,8:00,19,1
2023/4/20,8:30,17,2
2023/4/20,9:00,16,2
2023/4/20,9:30,17,3
2023/4/20,10:00,19,5
2023/4/20,10:30,23,7
2023/4/20,11:00,27,9
2023/4/20,11:30,33,10
2023/4/20,12:00,37,12
2023/4/20,12:30,39,13
2023/4/20,13:00,40,14
2023/4/20,13:30,40,13
2023/4/20,14:00,40,10
2023/4/20,14:30,39,9
2023/4/20,15:00,39,8
2023/4/20,15:30,38,7
2023/4/20,16:00,37,8
2023/4/20,16:30,36,10
2023/4/20,17:00,34,13
2023/4/20,17:30,30,14
2023/4/20,18:00,27,12
2023/4/20,18:30,23,14
2023/4/20,19:00,21,15
2023/4/20,19:30,19,14
2023/4/20,20:00,17,15
2023/4/20,20:30,15,15
2023/4/20,21:00,14,20
2023/4/20,21:30,12,24
2023/4/20,22:00,11,20
2023/4/20,22:30,10,14
2023/4/20,23:00,9,10
2023/4/20,23:30,8,6
2023/4/21,0:00,4,2
2023/4/21,0:30,4,1
2023/4/21,1:00,5,2
2023/4/21,1:30,5,3
2023/4/21,2:00,5,3
2023/4/21,2:30,6,4
2023/4/21,3:00,6,4
2023/4/21,3:30,6,5
2023/4/21,4:00,7,4
2023/4/21,4:30,7,4
2023/4/21,5:00,7,7
2023/4/21,5:30,7,8
2023/4/21,6:00,7,7
2023/4/21,6:30,7,6
2023/4/21,7:00,7,3
2023/4/21,7:30,7,2
2023/4/21,8:00,7,3
2023/4/21,8:30,7,7
2023/4/21,9:00,8,12
2023/4/21,9:30,10,8
2023/4/21,10:00,13,8
2023/4/21,10:30,14,11
2023/4/21,11:00,15,15
2023/4/21,11:30,15,17
2023/4/21,12:00,14,15
2023/4/21,12:30,12,12
2023/4/21,13:00,11,10
2023/4/21,13:30,11,8
2023/4/21,14:00,11,9
2023/4/21,14:30,11,11
2023/4/21,15:00,12,10
2023/4/21,15:30,14,10
2023/4/21,16:00,15,13
2023/4/21,16:30,15,23
2023/4/21,17:00,15,27
2023/4/21,17:30,16,27
2023/4/21,18:00,20,25
2023/4/21,18:30,28,23
2023/4/21,19:00,33,24
2023/4/21,19:30,36,24
2023/4/21,20:00,38,25
2023/4/21,20:30,39,20
2023/4/21,21:00,40,26
2023/4/21,21:30,41,32
2023/4/21,22:00,42,36
2023/4/21,22:30,42,40
2023/4/21,23:00,43,39
2023/4/21,23:30,44,42
2023/4/22,0:00,45,41
2023/4/22,0:30,46,42
2023/4/22,1:00,47,44
2023/4/22,1:30,48,43
2023/4/22,2:00,50,43
2023/4/22,2:30,51,44
2023/4/22,3:00,52,44
2023/4/22,3:30,53,45
2023/4/22,4:00,53,42
2023/4/22,4:30,54,42
2023/4/22,5:00,54,43
2023/4/22,5:30,53,44
2023/4/22,6:00,53,42
2023/4/22,6:30,54,42
2023/4/22,7:00,55,41
2023/4/22,7:30,55,31
2023/4/22,8:00,54,24
2023/4/22,8:30,52,23
2023/4/22,9:00,51,21
2023/4/22,9:30,49,23
2023/4/22,10:00,49,21
2023/4/22,10:30,49,18
2023/4/22,11:00,48,19
2023/4/22,11:30,48,19
2023/4/22,12:00,48,20
2023/4/22,12:30,48,21
2023/4/22,13:00,47,23
2023/4/22,13:30,47,24
2023/4/22,14:00,46,25
2023/4/22,14:30,46,24
2023/4/22,15:00,45,25
2023/4/22,15:30,46,26
2023/4/22,16:00,45,34
2023/4/22,16:30,45,36
2023/4/22,17:00,44,37
2023/4/22,17:30,41,38
2023/4/22,18:00,39,40
2023/4/22,18:30,39,43
2023/4/22,19:00,39,45
2023/4/22,19:30,38,47
2023/4/22,20:00,38,45
2023/4/22,20:30,38,41
2023/4/22,21:00,37,39
2023/4/22,21:30,35,40
2023/4/22,22:00,34,41
2023/4/22,22:30,33,41
2023/4/22,23:00,32,41
2023/4/22,23:30,31,41
2023/4/23,0:00,37,40
2023/4/23,0:30,37,37
2023/4/23,1:00,37,35
2023/4/23,1:30,36,35
2023/4/23,2:00,36,35
2023/4/23,2:30,36,33
2023/4/23,3:00,36,33
2023/4/23,3:30,36,34
2023/4/23,4:00,36,36
2023/4/23,4:30,36,34
2023/4/23,5:00,36,34
2023/4/23,5:30,37,32
2023/4/23,6:00,37,31
2023/4/23,6:30,38,31
2023/4/23,7:00,38,29
2023/4/23,7:30,37,21
2023/4/23,8:00,37,13
2023/4/23,8:30,37,11
2023/4/23,9:00,37,11
2023/4/23,9:30,37,9
2023/4/23,10:00,36,7
2023/4/23,10:30,36,6
2023/4/23,11:00,36,6
2023/4/23,11:30,37,6
2023/4/23,12:00,37,6
2023/4/23,12:30,38,6
2023/4/23,13:00,38,10
2023/4/23,13:30,36,10
2023/4/23,14:00,34,10
2023/4/23,14:30,33,10
2023/4/23,15:00,32,10
2023/4/23,15:30,30,9
2023/4/23,16:00,29,13
2023/4/23,16:30,27,16
2023/4/23,17:00,25,15
2023/4/23,17:30,22,15
2023/4/23,18:00,19,14
2023/4/23,18:30,17,18
2023/4/23,19:00,16,20
2023/4/23,19:30,16,18
2023/4/23,20:00,16,16
2023/4/23,20:30,16,17
2023/4/23,21:00,17,16
2023/4/23,21:30,18,17
2023/4/23,22:00,19,17
2023/4/23,22:30,19,20
2023/4/23,23:00,20,17